Theta_e
324 324 325 325 323 321 324 325 323 324 327 326 320 318 319 319 318 318 319 327 336 339 341 343 342 343 343 344 346 347 348 349 349 350 352 352 353 353 354 355 356 355 354 353 353 352 353 354 354 353 353 354 356 358 358 353 349 349 347 345 344 343 341
322 323 323 323 324 324 322 321 323 326 327 326 323 319 319 318 317 318 318 325 331 334 338 343 342 342 343 342 344 345 346 348 348 349 350 351 352 353 354 355 355 356 356 355 353 352 353 353 354 355 354 356 357 357 359 356 351 349 349 347 345 346 344
320 322 321 321 323 325 324 322 325 325 321 321 323 321 320 318 316 317 318 321 326 327 333 341 342 342 342 342 343 343 345 346 346 347 348 349 350 352 354 354 354 355 355 354 353 353 353 353 353 354 354 355 356 357 359 357 351 349 349 349 349 347 345
321 321 320 318 319 323 324 323 325 325 322 322 322 322 322 318 317 319 317 319 326 330 335 341 341 341 341 342 342 342 344 345 344 345 346 347 349 350 352 353 353 354 354 353 353 353 353 353 352 353 353 355 356 357 358 356 353 352 350 352 354 350 346
319 319 319 319 320 320 321 321 322 322 323 324 322 322 322 319 318 319 316 321 332 337 338 340 339 340 340 340 341 342 343 344 343 344 345 346 347 348 350 351 352 354 354 354 353 353 353 352 352 354 354 355 356 356 356 355 355 355 352 353 356 352 349
317 318 321 321 321 321 322 321 321 321 322 321 319 319 320 318 319 318 318 327 335 338 336 338 337 338 338 340 341 341 341 342 342 343 343 344 345 346 347 348 349 351 353 354 354 353 354 353 352 354 354 355 355 355 355 354 355 356 353 353 355 355 354
318 319 321 321 320 322 322 322 323 324 323 320 317 318 319 318 319 318 321 332 338 337 336 338 336 338 338 339 340 340 340 341 341 342 342 342 343 344 345 345 346 348 350 352 353 354 354 354 354 355 354 354 354 354 354 354 354 355 355 355 356 357 357
320 320 320 321 321 322 321 322 323 323 323 323 320 322 322 319 319 316 322 334 338 336 337 339 336 338 339 337 339 339 339 340 339 340 340 340 340 341 342 343 344 345 347 350 352 352 354 355 355 355 353 352 353 353 353 353 353 354 354 355 356 358 359
318 318 318 319 320 321 320 322 323 322 323 324 323 324 325 322 321 318 321 331 336 336 338 338 335 337 337 337 338 337 338 339 337 337 337 338 338 339 340 341 341 343 346 348 349 349 351 353 354 353 352 352 353 352 352 352 353 354 354 354 356 357 358
317 318 318 317 318 320 320 321 322 322 322 322 322 322 321 321 322 321 324 331 336 336 338 336 334 335 336 336 337 336 337 337 336 335 336 336 337 337 337 338 338 340 343 344 346 347 348 350 351 353 353 353 352 352 351 352 352 353 354 354 353 355 357
319 321 321 321 321 319 318 319 320 321 321 322 323 320 320 321 321 323 331 336 336 336 337 336 335 335 334 336 337 336 336 335 335 335 334 334 335 334 335 335 335 337 339 341 343 345 346 348 349 351 352 353 353 352 352 352 352 352 353 353 353 354 356
319 320 319 320 321 319 318 318 318 319 320 322 323 320 322 325 321 325 337 340 335 336 338 335 335 334 334 335 335 335 335 335 334 334 334 334 334 332 333 333 332 333 335 337 339 342 344 347 348 350 351 352 352 353 353 353 352 352 352 352 353 354 355
317 318 317 318 320 319 319 318 318 319 319 321 322 321 323 327 324 328 339 341 336 337 336 334 334 334 334 335 334 334 334 334 334 334 333 333 332 332 331 331 331 330 331 333 335 338 340 344 347 348 350 351 351 351 352 352 351 351 352 351 352 353 354
317 317 316 316 317 317 317 317 317 318 318 319 321 321 322 327 328 330 336 337 337 335 333 333 334 334 334 334 333 333 333 333 333 333 333 332 332 332 331 331 331 330 329 330 331 333 336 340 343 346 348 350 350 349 350 352 351 351 351 351 351 352 353
315 315 315 315 315 315 315 316 316 317 318 318 318 320 321 324 327 329 332 334 334 333 333 333 332 333 334 334 333 333 332 332 332 331 331 331 331 331 331 331 331 330 329 328 328 330 332 334 337 341 344 347 348 349 349 350 351 352 351 352 352 352 352
314 314 314 313 314 315 313 314 316 316 316 317 317 320 321 322 324 325 328 330 331 332 332 331 331 333 333 332 333 333 331 331 331 330 330 331 331 331 331 331 331 331 330 329 328 328 329 330 332 334 337 341 345 348 349 349 351 352 352 352 351 351 352
313 313 313 313 313 312 312 313 315 316 316 318 320 322 324 325 324 323 325 327 329 331 331 329 329 331 331 331 331 331 331 331 329 329 329 329 329 330 330 330 330 330 331 330 329 328 327 328 329 329 329 332 338 344 347 348 350 352 353 352 350 350 351
314 314 313 313 311 311 313 315 317 317 317 318 320 322 323 325 326 326 328 329 329 329 330 329 329 330 330 329 329 329 330 330 329 328 328 327 327 328 328 328 328 328 329 330 330 329 328 327 327 328 327 327 330 337 343 346 348 350 352 352 351 351 352
315 315 312 311 312 314 317 318 317 319 319 318 321 325 325 324 325 327 329 329 328 328 329 329 328 328 328 328 328 328 328 328 329 327 326 326 326 326 326 327 326 326 327 328 329 329 329 327 326 328 328 327 329 334 338 342 345 348 350 351 351 352 354
316 315 312 312 315 317 318 318 315 316 318 319 321 324 324 323 324 327 327 327 327 328 327 327 327 326 327 327 327 326 325 326 326 326 325 325 324 324 324 325 326 325 325 326 326 328 329 328 326 327 328 327 329 333 334 335 339 344 347 349 350 350 352
316 315 312 315 319 318 317 317 317 318 320 320 321 322 323 322 323 325 326 325 326 327 326 325 325 325 326 327 327 325 324 324 324 325 324 323 323 323 322 323 324 324 323 324 324 325 327 327 326 327 327 324 326 331 333 333 336 338 340 344 347 348 350
316 315 315 317 317 316 318 320 320 321 321 320 320 320 321 324 324 323 325 325 325 325 325 325 324 325 326 327 327 325 323 322 322 323 323 322 322 322 321 322 322 322 322 323 324 323 324 324 324 326 327 326 326 329 331 334 335 333 331 335 340 343 346
316 315 315 314 314 318 322 321 319 319 318 318 318 316 318 323 324 322 323 324 323 323 324 324 323 324 325 326 326 324 322 321 321 321 321 320 321 320 320 321 321 320 321 322 322 322 323 323 323 323 326 327 327 327 329 333 334 329 326 329 333 335 338
315 316 315 313 316 322 324 321 319 318 317 317 317 315 318 323 324 321 322 323 322 322 322 322 322 324 324 324 323 322 320 320 320 320 319 319 319 319 319 320 319 319 320 321 321 321 322 322 323 322 323 325 325 323 325 331 332 326 321 324 327 327 329
315 315 315 314 318 323 322 319 319 318 316 316 317 318 321 324 322 321 321 321 320 320 320 320 321 322 322 321 320 319 319 319 319 318 318 318 318 319 318 319 318 318 319 320 320 320 320 321 322 322 322 324 323 321 322 327 329 328 325 324 323 322 325
315 316 315 314 317 322 322 319 319 317 316 317 319 322 323 323 321 321 320 319 319 319 319 319 319 320 320 319 319 319 318 318 318 318 318 317 318 318 318 318 318 318 319 319 319 319 319 320 320 321 322 322 320 319 320 323 324 324 324 324 323 321 322
315 315 315 314 317 321 321 319 318 317 316 319 322 322 322 320 320 320 319 318 319 318 318 318 318 319 319 318 318 318 317 317 317 317 317 317 317 317 317 317 317 317 317 318 318 319 319 319 319 321 322 321 317 317 320 320 317 316 318 320 324 325 323
315 314 315 316 318 321 319 317 317 318 318 320 321 321 320 319 319 318 318 318 318 317 318 318 317 317 317 317 317 317 317 317 317 316 317 317 317 316 316 316 316 317 317 317 318 318 318 319 320 320 321 319 316 316 319 318 315 314 314 315 319 323 324
317 315 317 319 320 320 318 315 316 317 319 320 320 319 319 319 317 317 317 316 317 317 317 317 316 316 316 316 316 317 316 316 316 316 317 317 317 316 316 316 316 316 315 316 316 317 318 319 320 320 319 318 318 318 318 317 315 314 317 319 318 318 321
318 317 318 319 319 319 318 316 316 316 317 319 318 317 317 316 316 316 316 316 316 316 316 316 316 316 316 316 316 317 316 316 316 316 316 317 317 317 316 316 316 315 314 314 315 316 317 318 319 320 320 320 321 319 316 315 316 319 324 325 320 314 314
316 316 317 318 318 317 317 316 316 316 317 317 317 317 316 316 315 316 316 316 316 316 315 316 316 316 316 316 316 316 316 316 316 316 316 316 316 317 317 317 316 316 315 315 315 314 315 315 315 317 318 319 320 319 318 317 319 321 323 323 319 315 314
316 316 317 318 318 317 317 316 316 316 317 317 317 317 317 316 316 315 316 316 315 315 315 315 315 316 316 315 315 315 315 315 315 315 315 315 315 316 316 315 316 316 317 316 315 314 313 312 312 313 314 316 317 318 318 317 316 316 316 316 316 316 314
316 316 317 318 317 318 318 317 316 316 316 316 316 316 316 316 315 315 315 315 315 315 315 315 315 315 315 314 314 313 313 313 313 313 314 314 314 314 314 315 315 315 316 317 317 316 314 313 313 313 312 312 313 313 314 314 314 313 314 314 314 314 314
316 317 318 318 318 318 318 318 317 317 316 315 315 315 315 315 315 315 316 315 315 314 314 314 314 314 314 314 313 312 313 313 312 313 313 313 313 313 313 314 314 314 315 316 316 317 316 316 316 316 314 313 312 312 314 316 316 317 318 319 318 318 319
316 317 317 318 318 318 318 318 317 317 316 315 315 315 315 315 315 315 315 315 314 313 313 313 313 313 313 312 312 312 312 312 312 312 312 312 312 312 312 313 313 314 314 315 315 316 317 317 317 317 317 316 314 314 316 318 320 321 322 323 324 323 323
318 317 317 318 318 318 319 319 318 317 316 315 315 315 315 315 315 314 314 314 313 313 313 312 312 311 312 312 311 311 311 311 311 311 311 311 311 311 311 312 313 313 314 314 315 315 316 316 317 317 317 317 317 317 318 319 321 322 323 325 326 326 325
318 318 318 318 318 318 319 319 318 317 316 316 315 315 315 315 315 314 314 314 314 313 313 312 312 311 311 311 311 310 310 310 310 310 310 310 310 311 311 312 312 313 313 313 314 314 315 315 316 316 316 316 316 316 317 318 319 320 321 323 324 325 326
Wind_Speed
13 14 11 10 11 6 7 10 11 9 10 9 7 8 10 11 10 9 9 6 7 8 9 9 9 10 10 10 12 13 13 13 12 11 9 10 9 7 12 17 21 23 25 27 29 30 30 29 29 29 30 29 27 28 30 30 28 27 26 24 23 22 22
11 9 8 12 15 10 5 8 9 10 11 8 6 6 8 11 10 8 12 12 10 9 6 7 8 8 10 10 11 12 13 14 14 14 12 9 7 4 4 10 17 21 23 26 29 30 30 28 27 27 27 26 27 28 29 30 29 28 27 25 24 23 22
10 10 9 10 13 15 10 5 6 9 10 6 5 6 7 11 11 8 14 16 11 8 7 7 7 7 8 9 10 11 13 15 14 14 13 10 9 8 5 2 12 20 23 26 29 29 29 29 28 28 26 26 28 27 26 28 29 29 28 27 26 25 23
9 10 11 9 11 14 12 7 8 9 8 6 7 6 6 9 10 9 13 14 7 4 5 8 8 6 7 8 9 10 13 15 15 15 15 14 13 11 11 10 2 12 21 26 28 27 29 32 30 27 26 26 27 27 26 28 29 29 31 29 28 28 25
9 9 8 5 5 9 11 8 8 9 7 7 9 9 8 8 8 9 10 9 7 6 3 6 8 6 7 9 9 10 12 14 14 14 15 15 14 12 11 14 13 5 9 17 24 25 26 31 31 27 24 24 26 26 26 28 29 30 32 31 30 30 28
8 6 5 2 4 3 5 8 10 10 9 8 9 10 10 9 8 9 7 5 7 5 2 4 7 6 8 10 10 10 12 13 13 14 14 14 14 13 12 13 15 16 16 9 13 21 23 26 28 26 26 27 28 28 26 27 28 32 34 33 32 31 29
4 6 6 3 6 7 4 4 7 9 11 11 10 10 10 9 10 9 3 7 5 2 2 5 6 7 9 10 10 10 11 12 13 13 14 14 15 14 15 16 17 18 22 20 11 8 15 21 22 21 25 28 29 29 28 28 30 33 34 33 32 31 29
5 7 3 3 4 5 6 5 3 5 7 8 7 5 5 7 11 11 5 6 5 4 3 5 8 9 10 10 10 10 10 12 13 13 14 15 17 17 17 19 19 19 19 22 22 17 8 8 16 19 22 24 25 26 27 28 30 32 31 29 29 30 29
5 4 5 5 4 5 8 6 2 5 6 7 6 5 4 5 9 9 5 4 7 5 5 6 9 9 9 10 10 11 11 12 13 14 14 15 18 19 20 20 20 20 19 20 21 22 20 12 4 12 18 21 21 22 25 28 30 29 26 26 27 28 28
6 4 5 5 7 8 6 3 2 4 6 6 6 6 6 7 6 6 2 6 9 6 6 8 10 8 8 9 10 11 11 12 13 14 15 16 18 19 20 21 21 21 20 19 18 18 18 16 12 5 6 13 16 17 20 24 27 25 20 21 25 25 25
1 1 2 2 4 10 9 6 4 3 2 4 6 8 6 5 5 2 5 11 13 10 10 10 10 8 8 8 9 10 10 11 13 14 15 16 17 19 20 21 22 22 21 20 18 15 13 11 13 14 9 3 6 12 15 17 22 23 19 19 22 22 22
3 4 5 5 2 4 7 5 4 2 0 3 7 6 3 5 5 3 8 13 14 13 12 11 10 9 7 7 8 9 9 10 12 13 14 16 18 19 21 22 23 23 22 21 20 17 13 8 7 11 11 8 4 3 7 10 18 22 20 19 20 19 19
1 3 3 3 3 2 2 1 1 2 1 2 3 1 3 4 1 6 10 12 12 12 12 11 11 10 9 9 9 9 9 10 11 12 14 16 18 19 20 21 23 23 21 21 20 19 16 11 5 3 6 7 6 6 5 1 12 17 16 17 18 17 19
3 1 1 1 1 0 3 3 1 1 1 1 0 2 4 4 6 11 13 12 11 11 11 10 10 11 11 11 10 9 9 10 10 11 13 15 17 18 19 19 20 20 20 20 19 19 18 15 11 6 1 4 4 6 10 7 4 11 10 13 17 19 21
4 2 2 3 2 3 4 4 3 3 3 3 2 1 2 5 7 10 13 14 10 9 11 11 10 12 12 10 10 9 8 9 10 11 13 15 16 16 18 18 18 18 19 20 19 19 18 17 15 11 7 3 2 1 6 7 4 8 7 8 14 18 20
4 3 3 4 3 5 8 8 7 6 4 4 3 2 2 3 6 9 10 10 8 8 11 10 9 10 10 8 8 9 8 9 10 11 13 14 15 16 16 17 17 17 18 19 19 19 18 17 15 13 11 8 5 3 1 2 6 9 9 11 15 18 18
4 5 3 3 4 7 8 6 6 7 5 2 2 3 1 1 2 5 5 6 9 10 10 9 9 9 8 7 7 7 7 8 10 12 13 13 14 15 15 16 17 17 17 18 18 19 18 17 16 15 13 12 9 7 5 3 2 7 9 12 17 18 18
3 5 3 4 6 7 2 4 5 3 2 2 2 3 3 2 1 3 6 9 11 9 8 9 8 7 9 8 8 8 7 6 9 11 12 13 13 14 14 15 16 16 16 16 17 18 18 17 16 15 15 14 13 12 8 6 2 5 9 11 17 19 17
3 5 4 6 6 3 5 7 6 6 4 0 0 2 4 3 3 7 10 10 9 6 7 8 6 5 7 7 8 10 9 7 8 10 11 12 12 12 13 14 14 15 15 16 16 17 17 17 16 15 15 14 15 15 12 9 5 3 8 9 13 18 17
3 4 6 5 3 6 7 6 5 4 3 2 3 3 4 3 3 6 8 9 9 6 6 7 6 5 5 7 7 9 9 8 9 9 10 11 11 12 12 12 13 14 14 15 16 15 15 16 16 15 15 14 15 16 14 12 10 4 5 8 9 13 16
4 5 6 5 5 6 6 5 5 3 3 2 1 3 5 6 5 5 6 8 8 7 6 6 5 5 6 8 8 7 7 8 8 8 9 10 10 11 11 11 11 12 13 13 14 14 14 15 16 16 16 15 14 15 15 15 13 11 8 8 9 10 12
4 5 5 5 5 5 5 7 7 5 4 4 4 4 3 8 7 5 6 8 7 5 5 5 4 4 6 6 7 6 5 6 7 7 8 8 9 10 10 10 10 12 13 12 12 13 13 13 15 16 16 17 15 15 15 15 14 14 14 13 11 11 11
5 5 6 6 5 3 7 8 7 6 4 3 1 4 4 8 10 6 4 7 9 5 3 3 2 4 6 4 7 6 4 5 6 7 7 8 8 9 10 10 10 12 13 12 12 13 13 13 14 14 15 16 16 15 15 14 14 14 14 14 14 13 12
5 5 6 5 1 5 8 8 6 6 4 1 4 5 4 7 10 6 1 4 9 7 3 2 3 5 3 4 6 4 4 4 5 6 7 8 9 9 10 10 11 13 12 11 12 13 13 14 14 13 14 15 16 16 15 13 13 13 12 12 13 13 13
5 5 6 5 2 8 9 8 7 6 4 4 6 3 4 5 7 6 2 4 6 6 5 4 4 5 1 4 3 3 4 5 6 7 8 8 9 9 10 11 12 12 11 11 12 13 14 14 14 13 14 15 17 18 17 15 14 14 13 12 12 13 14
5 4 6 6 2 5 7 8 9 5 2 3 2 4 6 6 6 6 4 3 2 3 5 5 5 6 5 5 5 6 6 6 6 7 8 9 10 10 11 12 12 11 11 11 12 13 13 13 14 14 14 15 19 20 18 17 17 16 16 16 13 12 12
5 5 6 6 2 5 9 9 7 4 3 2 6 7 6 6 5 5 3 2 2 4 6 6 6 6 7 9 9 9 8 8 8 7 8 9 10 11 12 12 12 12 12 12 12 13 13 14 14 15 15 17 21 21 19 20 21 20 19 19 16 13 12
5 5 4 1 2 8 11 5 2 1 1 5 5 4 5 5 5 5 5 6 5 6 7 7 7 7 8 9 9 8 9 10 11 10 9 9 10 11 12 12 13 13 13 13 13 14 13 14 14 14 16 20 22 22 20 22 24 23 23 21 19 16 14
5 4 1 2 3 8 8 2 2 2 2 3 2 2 4 4 4 6 8 8 7 8 9 9 9 8 8 7 6 7 8 10 12 12 12 11 10 10 11 12 13 14 15 16 16 15 14 13 13 14 16 19 21 21 21 23 25 25 24 22 21 19 17
5 6 4 3 3 5 5 3 2 2 2 3 4 4 5 5 5 6 8 8 7 7 8 8 9 8 7 5 6 7 8 9 11 13 14 14 13 12 12 12 13 15 17 17 17 17 16 15 14 14 14 15 17 20 23 24 24 21 19 20 24 25 22
4 3 4 5 5 6 6 5 5 6 5 6 6 6 5 5 5 5 6 6 6 6 7 8 9 8 6 6 7 8 8 9 11 12 14 15 16 15 15 14 13 14 15 17 18 19 19 19 18 17 16 16 17 19 21 22 20 18 18 22 26 28 26
7 5 3 3 5 6 6 6 7 7 8 8 8 7 6 5 5 5 5 6 6 6 7 8 8 7 7 8 9 10 10 11 12 13 14 16 17 18 18 18 16 14 14 15 17 19 21 21 21 21 20 20 19 19 20 21 22 24 26 27 27 28 28
9 9 9 10 9 9 10 10 10 9 9 9 9 9 8 6 6 6 6 6 6 6 6 6 6 7 7 8 9 10 11 11 12 13 14 16 18 20 20 20 19 17 15 15 16 18 20 21 21 22 23 23 22 21 22 23 24 26 27 28 30 30 29
7 6 5 6 6 6 7 9 9 10 10 10 10 10 9 8 7 7 6 6 6 6 6 6 7 8 8 8 10 11 11 12 13 14 15 16 18 19 20 21 20 19 18 17 17 18 19 19 20 21 23 24 24 23 22 21 22 23 24 25 28 28 26
7 6 5 5 5 7 7 7 6 7 9 9 10 11 11 10 9 8 8 7 7 8 8 8 8 9 10 10 11 12 13 13 14 15 16 16 17 18 20 21 21 21 20 19 19 19 19 19 19 20 21 22 23 23 21 20 20 21 21 22 23 23 22
8 10 11 9 8 9 10 9 9 9 9 10 11 12 12 11 10 10 9 9 9 9 9 9 10 11 12 12 12 13 14 14 14 15 16 16 17 18 18 19 20 21 21 21 21 20 20 19 19 19 20 21 21 22 21 20 19 20 21 21 22 22 22
10 12 14 13 12 12 11 10 11 11 11 11 12 12 12 12 12 11 11 10 10 9 10 10 11 11 12 13 13 14 14 15 15 15 16 16 17 17 17 17 18 20 21 22 22 22 22 21 21 21 22 22 22 22 23 22 21 22 23 23 24 24 23
Wind_Direction
179 201 218 223 244 232 191 208 216 225 229 226 233 223 208 209 216 206 184 142 101 126 135 121 111 94 85 72 62 59 49 46 46 43 53 59 72 145 183 188 189 193 197 198 198 201 202 200 200 202 199 195 191 192 197 199 198 199 200 200 201 201 202
181 201 221 215 231 246 225 208 215 218 220 238 267 241 207 205 212 203 186 174 156 157 152 122 110 89 79 68 56 55 49 45 43 41 48 51 55 87 175 197 196 196 197 197 199 202 205 203 201 201 198 194 192 194 197 200 200 201 201 202 204 204 204
172 190 214 214 227 242 254 277 269 231 206 214 255 256 226 204 205 204 189 186 182 177 167 136 113 85 74 65 53 51 47 43 39 37 41 44 51 60 56 174 196 199 202 205 203 201 204 205 203 203 200 196 197 194 195 202 204 203 204 203 205 207 207
169 186 203 201 207 224 244 278 267 232 206 207 218 236 240 209 206 210 194 186 168 128 138 127 108 86 73 64 54 49 44 42 40 35 34 34 38 41 28 23 87 193 201 206 205 203 206 208 205 202 202 201 199 195 196 205 207 205 205 202 201 206 207
178 186 193 208 210 210 217 226 223 211 207 221 215 220 235 220 208 211 202 183 133 88 87 111 104 91 74 64 59 54 47 45 43 39 37 33 32 33 26 24 30 61 163 187 200 202 205 208 206 201 200 200 199 198 202 207 209 210 210 204 200 203 204
197 171 128 7 332 309 224 213 217 211 206 219 219 218 228 231 227 224 207 158 120 98 95 117 106 92 78 67 61 58 51 47 45 42 42 39 35 33 31 32 33 41 59 95 188 198 191 194 199 197 197 200 201 202 205 208 211 214 212 205 200 200 199
164 110 83 343 326 340 315 239 237 226 210 213 218 217 221 228 240 239 174 107 118 136 114 116 109 91 82 73 66 62 56 51 48 45 43 40 37 35 34 35 37 43 54 66 93 162 185 190 193 193 196 203 206 206 208 211 215 215 210 203 198 197 196
109 97 78 302 313 309 262 227 260 269 236 228 236 249 253 236 234 231 180 117 136 170 145 126 124 111 96 86 75 67 61 54 49 48 44 39 37 36 37 37 38 45 61 78 81 70 75 175 193 197 201 206 207 209 214 216 219 219 212 204 198 194 194
168 153 180 201 207 235 234 215 232 297 293 284 275 279 278 245 241 248 235 144 128 158 188 151 131 118 101 92 80 69 64 56 49 48 47 42 37 35 36 37 39 46 57 72 79 70 59 63 148 204 210 209 206 212 217 219 229 235 223 207 200 196 194
198 192 190 191 193 201 213 212 215 257 281 288 276 260 239 230 248 281 287 124 126 162 194 152 128 117 103 94 84 74 68 61 53 49 48 46 41 37 36 36 39 45 50 56 66 71 67 62 61 71 207 209 210 223 224 222 235 248 235 207 200 201 198
306 344 15 349 222 194 181 172 180 205 269 280 261 252 250 248 251 245 117 126 140 160 166 146 127 118 109 99 88 79 73 67 62 56 55 55 49 42 39 37 39 43 46 47 49 55 64 76 84 78 75 123 218 241 240 230 232 239 232 208 200 202 203
354 4 28 17 324 179 157 160 166 150 97 252 245 247 289 311 278 206 135 139 147 149 149 140 125 117 109 97 90 83 75 70 67 64 61 59 55 49 43 41 41 41 42 43 42 44 48 58 97 107 104 103 114 234 245 230 221 224 227 218 207 206 204
71 359 13 14 10 79 128 181 147 114 122 217 231 254 6 341 262 150 141 142 140 137 139 132 122 122 115 99 88 81 80 75 68 67 63 58 54 51 46 43 41 39 39 42 41 41 43 42 46 105 146 145 117 75 51 187 216 218 220 219 219 220 212
148 53 354 330 347 164 211 216 185 235 233 123 131 45 47 69 118 137 146 141 132 132 131 123 122 123 115 104 92 79 79 79 71 65 62 58 54 50 47 44 41 38 39 43 45 42 40 40 40 32 349 193 147 80 69 76 226 234 223 217 223 226 222
186 181 222 211 240 253 229 204 190 223 215 184 202 174 125 137 134 139 148 144 133 124 124 129 136 127 117 110 99 84 74 74 73 68 62 58 53 49 46 42 39 36 35 39 45 44 38 35 37 35 24 347 264 156 106 110 178 228 234 236 232 228 228
195 174 218 213 217 243 240 225 206 204 215 213 197 162 159 173 152 150 160 159 145 131 131 139 146 135 124 115 105 95 80 69 68 65 63 59 53 48 43 39 36 33 31 31 34 37 37 34 33 33 31 21 352 311 274 147 175 202 233 250 234 225 229
186 149 201 241 228 231 235 222 192 189 206 211 146 127 89 358 176 172 174 153 137 138 145 150 154 146 127 107 101 101 90 76 68 64 61 59 55 50 43 39 35 30 27 25 24 27 30 31 30 28 29 27 17 358 334 328 196 206 238 247 232 229 235
193 141 171 240 232 225 196 86 100 116 153 191 183 162 139 100 73 101 96 109 128 147 157 149 142 125 108 102 102 100 94 80 69 65 61 56 54 51 45 40 35 29 26 21 18 19 19 22 27 23 20 23 22 15 5 355 335 231 242 244 234 237 246
210 135 180 227 225 177 91 85 88 74 62 83 274 89 104 104 124 124 117 115 121 137 145 138 133 111 111 122 110 91 87 79 66 63 60 55 51 47 42 39 33 27 23 19 16 14 11 11 18 18 12 14 17 16 12 10 11 256 248 252 238 240 251
212 164 201 219 163 118 107 98 100 98 107 173 191 175 164 174 177 156 141 126 122 133 142 143 155 168 172 169 134 94 82 77 67 58 53 48 46 43 37 33 31 25 19 16 13 12 8 5 8 11 7 6 12 13 9 13 21 0 275 273 259 249 252
228 230 212 164 131 156 161 132 108 99 97 103 251 235 186 166 175 177 154 144 149 158 161 160 165 188 207 191 153 113 83 74 70 60 51 41 38 38 31 27 28 21 14 12 9 7 6 3 4 4 359 359 8 12 8 11 16 10 348 323 301 279 261
216 254 236 189 192 200 157 123 104 83 64 50 1 304 196 157 167 180 160 158 166 166 161 164 164 195 220 197 149 117 76 58 56 53 46 33 27 27 20 18 19 10 5 6 4 2 1 359 1 1 355 354 360 5 8 10 7 4 2 356 340 319 292
219 243 243 225 223 170 117 115 111 101 88 67 345 262 210 154 147 156 165 166 172 184 189 159 176 228 224 166 122 105 63 37 33 32 27 18 16 13 7 8 6 358 356 356 355 356 353 352 356 356 353 352 352 356 4 7 2 359 359 0 358 347 327
232 231 240 244 227 110 120 127 121 110 106 153 226 226 190 136 129 124 190 185 165 173 198 191 240 254 231 101 88 71 42 27 21 17 9 5 6 1 357 357 353 349 348 345 345 346 345 346 348 348 350 349 346 349 356 356 354 353 350 352 357 350 339
227 225 242 246 107 101 120 130 119 110 125 218 234 202 108 107 109 112 189 217 168 168 197 212 244 267 326 54 34 6 7 7 5 2 356 354 356 354 350 348 346 344 340 335 334 334 335 338 338 337 341 341 337 341 347 346 344 342 336 338 349 352 348
241 240 246 243 179 112 125 123 114 124 211 228 176 110 107 115 112 118 165 202 150 185 218 228 259 290 320 337 336 340 345 348 352 352 349 348 346 343 343 344 343 340 333 329 328 326 327 329 327 327 329 327 327 332 336 335 334 332 328 329 336 345 348
244 242 239 249 242 138 145 137 128 172 233 120 115 130 137 133 127 136 171 193 191 221 235 243 266 294 310 314 320 328 329 331 338 345 349 348 341 337 336 336 335 332 328 325 323 321 321 320 318 320 319 316 318 324 326 323 323 325 326 325 325 327 330
238 236 226 266 85 133 148 148 103 156 121 79 97 153 168 158 164 186 211 225 230 239 245 249 257 274 288 296 307 318 322 324 328 332 339 341 337 334 330 327 326 326 323 320 317 315 316 316 314 313 311 310 311 314 316 316 317 320 322 319 318 319 320
279 290 320 64 95 135 149 144 15 58 99 91 114 225 235 232 234 236 240 245 243 240 242 248 257 266 274 281 292 305 313 317 320 322 326 328 327 326 323 321 320 317 314 313 313 312 310 310 309 306 305 307 308 308 307 308 312 317 320 316 312 313 314
288 292 260 220 196 174 177 203 216 204 227 207 195 219 242 250 254 252 256 264 260 245 240 245 253 262 269 276 287 299 306 309 313 316 317 318 319 319 319 318 315 311 308 308 307 306 305 305 305 304 302 301 300 299 299 302 309 315 314 307 305 309 310
260 264 216 206 228 231 226 229 216 203 210 215 212 218 225 231 236 234 242 254 254 243 239 242 250 259 266 271 279 289 296 300 305 309 311 313 314 314 314 315 314 311 307 304 302 302 302 301 300 300 297 294 293 294 295 297 300 299 295 294 299 305 306
242 252 237 228 247 248 241 240 232 219 216 217 221 225 223 223 226 223 222 228 232 235 235 234 243 253 259 267 275 280 285 291 296 300 304 307 309 310 311 311 312 310 304 300 299 299 299 299 300 299 296 294 292 290 289 288 286 285 286 290 293 296 299
242 249 251 247 242 234 229 235 242 246 245 239 233 230 227 223 218 219 224 227 231 239 241 240 247 257 261 268 274 278 282 287 290 293 298 302 304 306 308 308 308 307 303 299 297 296 296 298 298 296 295 294 293 291 290 289 288 286 286 288 289 290 294
240 245 255 263 259 249 243 246 245 243 245 246 240 231 228 229 228 228 234 235 235 242 252 255 258 262 268 272 275 278 282 284 287 290 294 297 300 302 304 305 304 303 301 299 296 293 294 294 294 295 295 294 293 293 292 290 289 287 284 283 285 287 288
268 287 308 310 294 283 282 285 271 241 227 230 234 231 230 235 237 237 242 247 249 254 261 267 268 270 276 279 279 281 282 282 286 289 291 293 296 298 299 300 300 300 300 299 297 295 293 292 292 292 292 292 292 292 292 290 288 286 283 279 279 280 280
292 290 293 295 286 277 275 277 277 262 239 231 234 235 235 237 238 240 243 246 252 260 266 270 273 275 279 280 280 282 283 285 287 288 289 291 292 293 295 296 296 298 299 299 298 297 295 293 290 289 288 288 289 289 289 286 284 281 278 275 273 273 274
293 287 287 285 275 271 271 269 266 261 253 245 239 237 237 236 235 238 242 243 247 259 269 272 275 277 278 279 281 283 285 287 288 288 289 290 290 290 292 292 294 296 297 297 297 296 294 292 290 288 286 286 286 286 285 282 281 278 274 270 269 269 269